Flag for Germany Weather past 2 weeks in Soest, North Rhine-Westphalia, Germany

Now
39 °F

Partly sunny.


Feels Like: 31 °F
Forecast: 36 / 47 °F
Wind: 14 mph from Northwest

Location: Dortmund / Wickede

Current Time: Apr 2, 2015 at 10:45:17 AM

Latest Report: Apr 2, 2015 at 10:20 AM


Visibility: N/A

Pressure: 29.83 "Hg

Humidity: 75%

Dew point: 32 °F

Location of SoestLocation

Historic Weather in Soest — Graph

°F

Soest temperature yesterday

Maximum temperature yesterday: 45 °F (at 12:50 PM)
Minimum temperature yesterday: 34 °F (at 5:50 AM)
Average temperature yesterday: 40 °F

Past Weeks' High & Low Weather Summary

 TemperatureHumidityPressure
High61 °F (Mar 18, 2:20 PM)93% (Mar 19, 5:20 AM)30.36 "Hg (Mar 19, 5:20 AM)
Low28 °F (Mar 23, 5:20 AM)43% (Mar 31, 5:50 PM)29.21 "Hg (Mar 29, 7:20 PM)
Average44 °F75%29.91 "Hg
* Reported Mar 18 8:20 AM — Apr 2 9:20 AM, Soest, Weather by CustomWeather, © 2015

Note: Actual official high and low records may vary slightly from our data, if they occured in-between our weather recording intervals... More about our weather records

Advertising

Soest weather history for previous 24 hours

 ConditionsComfort  
Time TempWeatherWind HumidityBarometerVisibility
9:20 AM
Thu, Apr 2
37 °FLight rain. Partly sunny.10 mph87%29.80 "HgN/A
8:50 AM39 °FLight rain. Partly sunny.10 mph87%29.77 "HgN/A
8:20 AM37 °FLight rain. Partly sunny.10 mph93%29.77 "HgN/A
7:50 AM37 °FLight rain. Passing clouds.13 mph87%29.77 "HgN/A
7:20 AM39 °FLight rain. Passing clouds.12 mph93%29.74 "HgN/A
6:50 AM39 °FLight rain. Passing clouds.7 mph93%29.77 "HgN/A
6:20 AM39 °FLight rain. Passing clouds.10 mph87%29.77 "HgN/A
5:50 AM39 °FLight rain. Passing clouds.14 mph93%29.77 "HgN/A
5:20 AM41 °FLight rain. Passing clouds.16 mph87%29.80 "HgN/A
10:50 PM
Wed, Apr 1
41 °FSprinkles. Passing clouds.18 mph76%29.98 "HgN/A
10:20 PM43 °FPassing clouds.14 mph66%29.98 "HgN/A
9:50 PM43 °FThundershowers. Passing clouds.21 mph61%30.01 "HgN/A
9:20 PM43 °FPassing clouds.12 mph61%30.01 "HgN/A
8:50 PM43 °FPartly sunny.9 mph61%30.01 "HgN/A
8:20 PM43 °FScattered showers. Partly sunny.7 mph61%30.01 "HgN/A
7:50 PM41 °FSprinkles. Partly sunny.17 mph61%30.01 "HgN/A
7:20 PM41 °FPassing clouds.10 mph70%30.01 "HgN/A
6:50 PM41 °FScattered clouds.10 mph76%30.04 "HgN/A
6:20 PM39 °FScattered clouds.13 mph81%30.01 "HgN/A
5:50 PM37 °FScattered showers. Scattered clouds.14 mph87%30.01 "HgN/A
5:20 PM37 °FSprinkles. Broken clouds.16 mph87%30.01 "Hg6 mi
4:50 PM39 °FScattered showers. Scattered clouds.18 mph81%30.01 "HgN/A
4:20 PM39 °FSprinkles. Broken clouds.23 mph75%30.01 "HgN/A
3:50 PM41 °FPartly sunny.20 mph76%30.01 "HgN/A
3:20 PM41 °FBroken clouds.17 mph81%30.01 "HgN/A
2:50 PM39 °FSprinkles. Partly sunny.20 mph81%30.01 "Hg6 mi
2:20 PM39 °FSprinkles. Partly sunny.20 mph81%30.01 "HgN/A
1:50 PM41 °FScattered showers. Partly sunny.21 mph76%30.01 "HgN/A
1:20 PM41 °FSprinkles. Partly sunny.16 mph70%29.98 "HgN/A
12:50 PM45 °FPartly sunny.15 mph57%29.98 "HgN/A
12:20 PM43 °FScattered clouds.15 mph66%29.98 "HgN/A
11:50 AM43 °FScattered clouds.14 mph71%29.98 "HgN/A
11:20 AM41 °FPartly sunny.15 mph70%29.98 "HgN/A
10:50 AM41 °FPartly sunny.14 mph70%29.98 "HgN/A
10:20 AM39 °FPartly sunny.10 mph75%29.98 "HgN/A
Weather by CustomWeather, © 2015

See weather overviewHow to use our weather pages